Location: Unspecified
(32.1801°N, 0.0000°E)
Time: 00:03:26
(UTC+00:00)

SL-08 R/B - Visible Passes

Search period start: 05 April 2026 00:00
Search period end: 15 April 2026 00:00
Orbit: 945 x 993 km, 83.0° (Epoch: 29 March)

Date Brightness Start Highest point End Pass type
(mag) Time Alt. Az. Time Alt. Az. Time Alt. Az.
5 Apr 6.4 19:05:08 10° SW 19:10:32 33° WNW 19:16:00 10° NNW visible
6 Apr 7.4 04:20:55 10° NNE 04:25:12 19° ENE 04:29:29 10° ESE visible
6 Apr 7.5 19:30:12 10° WSW 19:34:09 18° WNW 19:38:09 10° NNW visible
7 Apr 6.4 04:43:09 10° NNE 04:48:50 35° ENE 04:54:29 10° SE visible
8 Apr 5.1 05:06:03 10° N 05:12:18 64° E 05:18:33 10° SSE visible
9 Apr 7.6 03:46:51 10° NE 03:49:54 14° ENE 03:52:56 10° E visible
9 Apr 7.2 18:54:03 10° SW 18:58:52 24° WNW 19:03:44 10° NNW visible
10 Apr 6.8 04:08:26 10° NNE 04:13:36 26° ENE 04:18:45 10° SE visible
10 Apr 7.9 19:20:09 10° W 19:22:36 12° WNW 19:25:02 10° NW visible
11 Apr 5.6 04:31:04 10° N 04:37:08 48° E 04:43:12 10° SSE visible
12 Apr 4.6 04:54:12 10° N 05:00:32 87° E 05:06:52 10° S visible
13 Apr 7.1 03:33:55 10° NNE 03:38:20 19° ENE 03:42:43 10° ESE visible
14 Apr 6.1 03:56:12 10° NNE 04:01:57 36° E 04:07:40 10° SE visible
